QPF
0.00 0.00 0.00 0.00 0.00 0.00 0.00 0.00 0.00 0.01 0.00 0.00 0.00 0.00 0.00 0.00 0.00 0.00 0.00 0.00 0.00 0.00 0.00 0.00 0.00 0.00 0.00 0.00 0.00 0.00 0.00 0.00 0.00 0.00 0.00 0.01 0.01 0.01 0.01 0.01 0.01 0.01 0.01 0.01
0.00 0.00 0.00 0.00 0.00 0.00 0.00 0.00 0.00 0.00 0.00 0.00 0.00 0.00 0.00 0.00 0.00 0.00 0.00 0.00 0.00 0.00 0.00 0.00 0.00 0.00 0.00 0.00 0.00 0.00 0.00 0.00 0.00 0.00 0.00 0.00 0.01 0.01 0.01 0.01 0.01 0.01 0.01 0.01
0.00 0.00 0.00 0.00 0.00 0.00 0.00 0.00 0.00 0.00 0.00 0.00 0.00 0.00 0.00 0.00 0.00 0.00 0.00 0.00 0.00 0.00 0.00 0.00 0.00 0.00 0.00 0.00 0.00 0.00 0.00 0.00 0.00 0.00 0.00 0.00 0.00 0.01 0.00 0.00 0.00 0.00 0.00 0.00
0.00 0.00 0.00 0.00 0.00 0.00 0.00 0.00 0.00 0.00 0.00 0.00 0.00 0.00 0.00 0.00 0.00 0.00 0.00 0.00 0.00 0.00 0.00 0.00 0.00 0.00 0.00 0.00 0.00 0.00 0.00 0.00 0.00 0.00 0.00 0.00 0.00 0.01 0.01 0.01 0.01 0.01 0.01 0.00
0.00 0.00 0.00 0.00 0.00 0.00 0.00 0.00 0.00 0.00 0.00 0.00 0.00 0.00 0.00 0.00 0.00 0.00 0.00 0.00 0.00 0.00 0.00 0.00 0.00 0.00 0.00 0.00 0.00 0.00 0.00 0.00 0.00 0.00 0.00 0.00 0.00 0.00 0.00 0.01 0.01 0.01 0.01 0.01
0.00 0.00 0.00 0.00 0.00 0.00 0.00 0.00 0.00 0.00 0.00 0.00 0.00 0.00 0.00 0.00 0.00 0.00 0.00 0.00 0.00 0.00 0.00 0.00 0.00 0.00 0.00 0.00 0.00 0.00 0.00 0.01 0.00 0.00 0.00 0.00 0.00 0.00 0.00 0.00 0.01 0.01 0.01 0.01
0.00 0.00 0.00 0.00 0.00 0.00 0.00 0.00 0.00 0.00 0.00 0.00 0.00 0.00 0.00 0.00 0.00 0.00 0.00 0.00 0.00 0.00 0.00 0.00 0.00 0.00 0.00 0.00 0.00 0.00 0.00 0.00 0.00 0.00 0.01 0.01 0.01 0.01 0.01 0.01 0.01 0.01 0.01 0.01
0.00 0.00 0.00 0.00 0.00 0.00 0.00 0.00 0.00 0.00 0.00 0.00 0.00 0.00 0.00 0.00 0.00 0.00 0.00 0.00 0.00 0.00 0.00 0.00 0.00 0.01 0.01 0.01 0.01 0.01 0.00 0.01 0.01 0.01 0.01 0.01 0.01 0.01 0.01 0.01 0.01 0.01 0.02 0.02
0.00 0.00 0.00 0.00 0.00 0.00 0.00 0.00 0.00 0.00 0.00 0.00 0.00 0.00 0.00 0.00 0.00 0.00 0.00 0.00 0.00 0.00 0.00 0.00 0.00 0.01 0.02 0.02 0.03 0.03 0.02 0.01 0.01 0.01 0.01 0.01 0.02 0.01 0.01 0.01 0.01 0.02 0.02 0.02
0.00 0.00 0.00 0.00 0.00 0.00 0.00 0.00 0.00 0.00 0.00 0.00 0.00 0.00 0.00 0.00 0.00 0.00 0.00 0.00 0.00 0.00 0.00 0.00 0.00 0.01 0.01 0.01 0.02 0.02 0.03 0.03 0.03 0.03 0.03 0.02 0.02 0.02 0.02 0.01 0.02 0.02 0.03 0.03
0.00 0.00 0.00 0.00 0.00 0.00 0.00 0.00 0.00 0.00 0.00 0.00 0.00 0.00 0.00 0.00 0.00 0.00 0.00 0.00 0.00 0.00 0.00 0.00 0.00 0.00 0.01 0.01 0.01 0.01 0.02 0.03 0.04 0.04 0.04 0.04 0.03 0.03 0.03 0.04 0.05 0.05 0.04 0.04
0.00 0.00 0.00 0.00 0.00 0.00 0.00 0.00 0.00 0.00 0.00 0.00 0.00 0.00 0.00 0.00 0.00 0.00 0.00 0.00 0.00 0.00 0.00 0.00 0.00 0.00 0.00 0.01 0.01 0.01 0.02 0.03 0.05 0.06 0.06 0.06 0.06 0.05 0.05 0.05 0.07 0.07 0.06 0.05
0.00 0.00 0.00 0.00 0.00 0.00 0.00 0.00 0.00 0.00 0.00 0.00 0.00 0.00 0.00 0.00 0.00 0.00 0.00 0.00 0.00 0.00 0.01 0.01 0.01 0.01 0.00 0.01 0.01 0.01 0.02 0.03 0.05 0.06 0.06 0.06 0.07 0.08 0.08 0.08 0.07 0.07 0.07 0.06
0.00 0.00 0.00 0.00 0.00 0.00 0.00 0.00 0.00 0.00 0.00 0.00 0.00 0.00 0.00 0.00 0.00 0.00 0.00 0.00 0.00 0.01 0.01 0.01 0.01 0.01 0.01 0.01 0.01 0.01 0.02 0.03 0.04 0.05 0.05 0.05 0.05 0.05 0.06 0.07 0.08 0.06 0.06 0.06
0.00 0.00 0.00 0.00 0.00 0.00 0.00 0.00 0.00 0.00 0.00 0.00 0.00 0.00 0.00 0.00 0.00 0.00 0.00 0.00 0.00 0.00 0.00 0.00 0.01 0.01 0.01 0.01 0.01 0.01 0.02 0.02 0.03 0.05 0.05 0.06 0.06 0.05 0.05 0.05 0.05 0.05 0.05 0.05
0.00 0.00 0.00 0.00 0.00 0.00 0.00 0.00 0.00 0.00 0.00 0.00 0.00 0.00 0.00 0.00 0.00 0.00 0.00 0.00 0.00 0.00 0.00 0.01 0.01 0.01 0.01 0.01 0.01 0.01 0.01 0.02 0.03 0.03 0.04 0.05 0.05 0.05 0.05 0.05 0.04 0.04 0.04 0.04
0.00 0.00 0.00 0.00 0.00 0.00 0.00 0.00 0.00 0.00 0.00 0.00 0.00 0.00 0.00 0.00 0.00 0.00 0.00 0.00 0.00 0.01 0.01 0.01 0.01 0.01 0.01 0.01 0.02 0.02 0.02 0.02 0.02 0.03 0.03 0.03 0.04 0.04 0.04 0.04 0.04 0.04 0.03 0.04
0.00 0.00 0.00 0.00 0.00 0.00 0.00 0.00 0.00 0.00 0.00 0.00 0.00 0.00 0.00 0.00 0.00 0.00 0.00 0.00 0.00 0.00 0.00 0.00 0.01 0.01 0.01 0.01 0.02 0.02 0.02 0.02 0.02 0.03 0.03 0.03 0.03 0.03 0.04 0.04 0.04 0.04 0.03 0.04
0.00 0.00 0.00 0.00 0.00 0.00 0.00 0.00 0.00 0.00 0.00 0.00 0.00 0.00 0.00 0.00 0.00 0.00 0.00 0.00 0.00 0.00 0.00 0.00 0.01 0.01 0.01 0.01 0.02 0.02 0.02 0.02 0.02 0.03 0.03 0.03 0.04 0.03 0.04 0.04 0.04 0.04 0.04 0.04
0.00 0.00 0.00 0.00 0.00 0.00 0.00 0.00 0.00 0.00 0.00 0.00 0.00 0.00 0.00 0.00 0.00 0.00 0.00 0.00 0.00 0.00 0.00 0.01 0.01 0.01 0.01 0.01 0.01 0.02 0.02 0.02 0.03 0.03 0.03 0.03 0.03 0.03 0.03 0.04 0.04 0.04 0.04 0.04
0.00 0.00 0.00 0.00 0.00 0.00 0.00 0.00 0.00 0.00 0.00 0.00 0.00 0.00 0.00 0.00 0.00 0.00 0.00 0.00 0.00 0.00 0.00 0.00 0.01 0.01 0.01 0.01 0.02 0.02 0.02 0.02 0.02 0.02 0.03 0.03 0.03 0.03 0.03 0.03 0.03 0.03 0.04 0.03
0.00 0.00 0.00 0.00 0.00 0.00 0.00 0.00 0.00 0.00 0.00 0.00 0.00 0.00 0.00 0.00 0.00 0.00 0.00 0.00 0.00 0.00 0.00 0.00 0.00 0.01 0.01 0.01 0.01 0.02 0.02 0.02 0.02 0.02 0.02 0.02 0.02 0.02 0.02 0.02 0.02 0.03 0.03 0.03
0.00 0.00 0.00 0.00 0.00 0.00 0.00 0.00 0.00 0.00 0.00 0.00 0.00 0.00 0.00 0.00 0.00 0.00 0.00 0.00 0.00 0.00 0.00 0.00 0.01 0.01 0.01 0.01 0.01 0.01 0.02 0.02 0.02 0.02 0.02 0.02 0.02 0.02 0.02 0.02 0.02 0.02 0.02 0.02
0.00 0.00 0.00 0.00 0.00 0.00 0.00 0.00 0.00 0.00 0.00 0.00 0.00 0.00 0.00 0.00 0.00 0.00 0.00 0.00 0.00 0.00 0.00 0.00 0.01 0.01 0.01 0.01 0.01 0.01 0.01 0.01 0.02 0.02 0.02 0.02 0.02 0.02 0.02 0.02 0.02 0.02 0.01 0.01
0.00 0.00 0.00 0.00 0.00 0.00 0.00 0.00 0.00 0.00 0.00 0.00 0.00 0.00 0.00 0.00 0.00 0.00 0.00 0.00 0.00 0.00 0.00 0.00 0.00 0.00 0.01 0.01 0.01 0.01 0.01 0.01 0.01 0.01 0.01 0.01 0.01 0.01 0.01 0.01 0.01 0.01 0.01 0.01
0.00 0.00 0.00 0.00 0.00 0.00 0.00 0.00 0.00 0.00 0.00 0.00 0.00 0.00 0.00 0.00 0.00 0.00 0.00 0.00 0.00 0.00 0.00 0.00 0.00 0.00 0.01 0.01 0.01 0.01 0.01 0.01 0.01 0.01 0.01 0.01 0.01 0.01 0.01 0.01 0.01 0.01 0.01 0.01
0.00 0.00 0.00 0.00 0.00 0.00 0.00 0.00 0.00 0.00 0.00 0.00 0.00 0.00 0.00 0.00 0.00 0.00 0.00 0.00 0.00 0.00 0.00 0.00 0.00 0.00 0.01 0.01 0.01 0.01 0.01 0.01 0.01 0.01 0.01 0.01 0.01 0.01 0.01 0.01 0.01 0.01 0.01 0.01
MSLP
1011.36 1011.35 1011.26 1011.12 1010.97 1010.85 1010.82 1010.91 1011.13 1011.47 1011.93 1012.45 1012.98 1013.49 1013.93 1014.29 1014.55 1014.73 1014.85 1014.94 1015.02 1015.12 1015.24 1015.38 1015.51 1015.62 1015.68 1015.66 1015.57 1015.41 1015.21 1015.00 1014.82 1014.70 1014.68 1014.78 1014.99 1015.29 1015.67 1016.08 1016.49 1016.86 1017.17 1017.40
1011.83 1011.85 1011.78 1011.65 1011.49 1011.36 1011.31 1011.35 1011.52 1011.82 1012.22 1012.70 1013.21 1013.71 1014.16 1014.54 1014.85 1015.08 1015.26 1015.39 1015.50 1015.60 1015.71 1015.80 1015.87 1015.90 1015.88 1015.79 1015.64 1015.44 1015.22 1015.00 1014.83 1014.74 1014.74 1014.86 1015.08 1015.39 1015.75 1016.14 1016.52 1016.86 1017.13 1017.35
1012.28 1012.31 1012.25 1012.13 1011.97 1011.84 1011.76 1011.78 1011.90 1012.15 1012.50 1012.93 1013.41 1013.89 1014.35 1014.76 1015.10 1015.38 1015.60 1015.76 1015.90 1016.00 1016.08 1016.13 1016.14 1016.10 1016.01 1015.85 1015.64 1015.41 1015.16 1014.95 1014.79 1014.71 1014.73 1014.85 1015.07 1015.37 1015.71 1016.07 1016.41 1016.72 1016.97 1017.17
1012.63 1012.66 1012.61 1012.49 1012.35 1012.21 1012.13 1012.13 1012.24 1012.45 1012.76 1013.16 1013.61 1014.07 1014.53 1014.95 1015.32 1015.63 1015.88 1016.08 1016.22 1016.32 1016.38 1016.38 1016.34 1016.23 1016.07 1015.86 1015.61 1015.34 1015.08 1014.86 1014.70 1014.63 1014.65 1014.76 1014.96 1015.22 1015.52 1015.83 1016.14 1016.40 1016.63 1016.82
1012.83 1012.85 1012.80 1012.70 1012.57 1012.46 1012.40 1012.41 1012.51 1012.71 1013.01 1013.38 1013.81 1014.27 1014.72 1015.15 1015.54 1015.87 1016.14 1016.35 1016.50 1016.59 1016.62 1016.58 1016.49 1016.33 1016.12 1015.86 1015.58 1015.29 1015.01 1014.78 1014.61 1014.52 1014.52 1014.60 1014.75 1014.96 1015.20 1015.45 1015.70 1015.93 1016.13 1016.31
1012.87 1012.88 1012.84 1012.76 1012.67 1012.59 1012.57 1012.61 1012.74 1012.96 1013.26 1013.63 1014.06 1014.51 1014.96 1015.40 1015.79 1016.13 1016.41 1016.62 1016.77 1016.84 1016.84 1016.77 1016.64 1016.44 1016.19 1015.90 1015.59 1015.27 1014.98 1014.73 1014.54 1014.42 1014.37 1014.39 1014.48 1014.61 1014.77 1014.95 1015.13 1015.32 1015.49 1015.66
1012.78 1012.78 1012.75 1012.71 1012.67 1012.66 1012.69 1012.79 1012.97 1013.23 1013.55 1013.94 1014.37 1014.82 1015.27 1015.70 1016.10 1016.44 1016.71 1016.92 1017.05 1017.10 1017.07 1016.97 1016.81 1016.58 1016.30 1015.98 1015.65 1015.32 1015.01 1014.73 1014.50 1014.33 1014.22 1014.17 1014.16 1014.20 1014.27 1014.37 1014.48 1014.61 1014.75 1014.91
1012.62 1012.62 1012.62 1012.62 1012.65 1012.71 1012.83 1013.00 1013.25 1013.55 1013.91 1014.32 1014.76 1015.21 1015.66 1016.08 1016.46 1016.78 1017.04 1017.23 1017.34 1017.36 1017.31 1017.19 1016.99 1016.74 1016.44 1016.11 1015.77 1015.42 1015.08 1014.77 1014.50 1014.27 1014.08 1013.94 1013.83 1013.77 1013.74 1013.75 1013.80 1013.87 1013.98 1014.13
1012.43 1012.45 1012.49 1012.56 1012.67 1012.82 1013.03 1013.29 1013.60 1013.96 1014.36 1014.78 1015.23 1015.67 1016.10 1016.49 1016.85 1017.14 1017.37 1017.53 1017.61 1017.61 1017.54 1017.39 1017.18 1016.91 1016.60 1016.26 1015.90 1015.54 1015.19 1014.84 1014.52 1014.22 1013.95 1013.72 1013.51 1013.35 1013.22 1013.15 1013.12 1013.14 1013.23 1013.36
1012.25 1012.31 1012.41 1012.56 1012.76 1013.02 1013.32 1013.66 1014.04 1014.44 1014.87 1015.31 1015.74 1016.16 1016.55 1016.91 1017.22 1017.47 1017.66 1017.78 1017.82 1017.79 1017.69 1017.53 1017.30 1017.03 1016.72 1016.38 1016.02 1015.65 1015.27 1014.90 1014.53 1014.17 1013.83 1013.50 1013.20 1012.94 1012.73 1012.57 1012.48 1012.45 1012.51 1012.63
1012.11 1012.22 1012.40 1012.65 1012.95 1013.30 1013.69 1014.10 1014.54 1014.97 1015.41 1015.83 1016.24 1016.62 1016.96 1017.26 1017.51 1017.71 1017.84 1017.91 1017.92 1017.85 1017.72 1017.54 1017.31 1017.04 1016.73 1016.41 1016.05 1015.69 1015.31 1014.91 1014.51 1014.10 1013.69 1013.29 1012.91 1012.57 1012.27 1012.04 1011.88 1011.82 1011.84 1011.95
1011.98 1012.17 1012.44 1012.78 1013.18 1013.63 1014.10 1014.57 1015.04 1015.49 1015.92 1016.31 1016.67 1016.99 1017.26 1017.49 1017.67 1017.80 1017.87 1017.88 1017.84 1017.74 1017.58 1017.39 1017.16 1016.90 1016.61 1016.30 1015.97 1015.62 1015.25 1014.85 1014.43 1014.00 1013.54 1013.08 1012.64 1012.22 1011.85 1011.56 1011.34 1011.22 1011.21 1011.29
1011.84 1012.11 1012.48 1012.92 1013.42 1013.94 1014.48 1014.99 1015.48 1015.92 1016.32 1016.67 1016.97 1017.21 1017.41 1017.56 1017.66 1017.71 1017.72 1017.67 1017.57 1017.43 1017.26 1017.06 1016.83 1016.58 1016.32 1016.04 1015.74 1015.43 1015.08 1014.71 1014.29 1013.84 1013.37 1012.87 1012.38 1011.91 1011.48 1011.12 1010.84 1010.67 1010.61 1010.65
1011.66 1012.02 1012.48 1013.02 1013.60 1014.19 1014.77 1015.31 1015.80 1016.22 1016.58 1016.87 1017.10 1017.27 1017.39 1017.46 1017.48 1017.46 1017.39 1017.29 1017.14 1016.97 1016.77 1016.56 1016.34 1016.11 1015.88 1015.64 1015.39 1015.12 1014.82 1014.48 1014.10 1013.66 1013.18 1012.67 1012.14 1011.63 1011.15 1010.73 1010.40 1010.16 1010.04 1010.02
1011.44 1011.88 1012.43 1013.05 1013.69 1014.34 1014.94 1015.49 1015.96 1016.36 1016.67 1016.91 1017.07 1017.17 1017.22 1017.21 1017.16 1017.07 1016.94 1016.78 1016.59 1016.39 1016.17 1015.95 1015.73 1015.53 1015.33 1015.14 1014.95 1014.73 1014.49 1014.20 1013.86 1013.45 1012.99 1012.48 1011.94 1011.40 1010.88 1010.41 1010.01 1009.71 1009.52 1009.43
1011.20 1011.72 1012.34 1013.02 1013.71 1014.38 1015.00 1015.53 1015.98 1016.34 1016.60 1016.79 1016.89 1016.94 1016.92 1016.86 1016.76 1016.61 1016.43 1016.23 1016.00 1015.76 1015.52 1015.29 1015.08 1014.89 1014.73 1014.58 1014.44 1014.29 1014.11 1013.88 1013.59 1013.24 1012.81 1012.32 1011.79 1011.23 1010.68 1010.17 1009.71 1009.35 1009.08 1008.92
1010.99 1011.57 1012.25 1012.97 1013.69 1014.36 1014.96 1015.48 1015.89 1016.21 1016.43 1016.56 1016.63 1016.62 1016.57 1016.47 1016.32 1016.14 1015.92 1015.68 1015.42 1015.15 1014.89 1014.65 1014.44 1014.26 1014.12 1014.01 1013.92 1013.82 1013.70 1013.54 1013.31 1013.01 1012.63 1012.18 1011.67 1011.12 1010.56 1010.02 1009.53 1009.11 1008.78 1008.55
1010.87 1011.51 1012.23 1012.97 1013.68 1014.34 1014.91 1015.38 1015.75 1016.02 1016.20 1016.29 1016.32 1016.29 1016.21 1016.09 1015.92 1015.71 1015.47 1015.20 1014.91 1014.61 1014.33 1014.07 1013.85 1013.67 1013.54 1013.45 1013.39 1013.34 1013.27 1013.17 1013.01 1012.77 1012.45 1012.05 1011.58 1011.06 1010.51 1009.97 1009.46 1009.01 1008.64 1008.36
1010.90 1011.60 1012.33 1013.07 1013.76 1014.38 1014.90 1015.31 1015.62 1015.84 1015.97 1016.04 1016.04 1015.99 1015.90 1015.76 1015.58 1015.36 1015.10 1014.81 1014.49 1014.17 1013.86 1013.57 1013.32 1013.13 1012.99 1012.91 1012.86 1012.84 1012.81 1012.76 1012.66 1012.49 1012.24 1011.90 1011.49 1011.03 1010.53 1010.01 1009.52 1009.07 1008.69 1008.39
1011.13 1011.86 1012.60 1013.32 1013.96 1014.52 1014.97 1015.32 1015.56 1015.72 1015.81 1015.83 1015.81 1015.75 1015.64 1015.50 1015.32 1015.09 1014.82 1014.51 1014.16 1013.81 1013.46 1013.14 1012.86 1012.63 1012.47 1012.37 1012.32 1012.31 1012.31 1012.30 1012.25 1012.14 1011.96 1011.71 1011.38 1010.99 1010.56 1010.11 1009.67 1009.26 1008.90 1008.61
1011.54 1012.29 1013.03 1013.71 1014.30 1014.78 1015.15 1015.41 1015.59 1015.68 1015.71 1015.70 1015.65 1015.57 1015.46 1015.31 1015.12 1014.88 1014.59 1014.26 1013.89 1013.50 1013.12 1012.75 1012.42 1012.15 1011.95 1011.82 1011.76 1011.74 1011.75 1011.77 1011.77 1011.72 1011.62 1011.45 1011.21 1010.92 1010.59 1010.23 1009.87 1009.53 1009.23 1008.99
1012.09 1012.86 1013.57 1014.20 1014.72 1015.12 1015.41 1015.59 1015.68 1015.71 1015.69 1015.63 1015.55 1015.45 1015.32 1015.16 1014.96 1014.70 1014.40 1014.04 1013.64 1013.22 1012.79 1012.37 1012.00 1011.68 1011.43 1011.27 1011.17 1011.14 1011.15 1011.19 1011.22 1011.23 1011.20 1011.12 1010.98 1010.80 1010.58 1010.33 1010.07 1009.83 1009.61 1009.43
1012.73 1013.49 1014.17 1014.74 1015.19 1015.51 1015.70 1015.80 1015.82 1015.78 1015.70 1015.60 1015.49 1015.36 1015.21 1015.03 1014.81 1014.53 1014.20 1013.82 1013.39 1012.92 1012.45 1011.99 1011.57 1011.21 1010.92 1010.71 1010.59 1010.54 1010.54 1010.59 1010.65 1010.71 1010.75 1010.75 1010.71 1010.63 1010.52 1010.38 1010.24 1010.09 1009.96 1009.86
1013.37 1014.11 1014.75 1015.25 1015.62 1015.86 1015.98 1016.00 1015.95 1015.86 1015.73 1015.59 1015.44 1015.28 1015.11 1014.90 1014.65 1014.35 1013.99 1013.58 1013.11 1012.62 1012.11 1011.61 1011.15 1010.75 1010.43 1010.19 1010.04 1009.97 1009.97 1010.02 1010.11 1010.20 1010.30 1010.37 1010.42 1010.43 1010.42 1010.38 1010.34 1010.28 1010.24 1010.20
1013.96 1014.66 1015.23 1015.67 1015.97 1016.13 1016.19 1016.15 1016.06 1015.92 1015.76 1015.59 1015.41 1015.22 1015.01 1014.77 1014.49 1014.15 1013.77 1013.32 1012.83 1012.31 1011.77 1011.25 1010.77 1010.34 1010.00 1009.74 1009.57 1009.49 1009.49 1009.55 1009.65 1009.78 1009.91 1010.04 1010.15 1010.23 1010.30 1010.34 1010.37 1010.39 1010.40 1010.42
1014.45 1015.08 1015.58 1015.95 1016.18 1016.29 1016.30 1016.24 1016.11 1015.95 1015.77 1015.58 1015.37 1015.16 1014.92 1014.65 1014.33 1013.97 1013.54 1013.07 1012.55 1012.01 1011.46 1010.93 1010.44 1010.01 1009.66 1009.40 1009.23 1009.15 1009.15 1009.22 1009.33 1009.48 1009.64 1009.79 1009.94 1010.07 1010.18 1010.27 1010.34 1010.39 1010.44 1010.49
1014.82 1015.37 1015.79 1016.09 1016.28 1016.35 1016.34 1016.25 1016.13 1015.96 1015.78 1015.58 1015.36 1015.13 1014.86 1014.56 1014.21 1013.81 1013.35 1012.85 1012.31 1011.76 1011.21 1010.68 1010.20 1009.78 1009.44 1009.19 1009.04 1008.97 1008.98 1009.05 1009.17 1009.32 1009.49 1009.66 1009.82 1009.96 1010.08 1010.18 1010.26 1010.32 1010.37 1010.41
Thickness
5515 5516 5519 5522 5526 5529 5530 5536 5541 5540 5537 5537 5536 5535 5535 5536 5537 5539 5540 5539 5540 5541 5541 5542 5542 5542 5541 5542 5542 5542 5544 5545 5545 5545 5545 5545 5545 5544 5543 5543 5542 5541 5539 5537
5513 5515 5518 5520 5526 5528 5529 5532 5535 5535 5534 5533 5531 5530 5531 5531 5531 5531 5530 5529 5529 5529 5530 5531 5531 5530 5530 5530 5530 5531 5532 5532 5532 5532 5532 5532 5532 5531 5530 5530 5529 5528 5527 5525
5520 5514 5520 5526 5528 5528 5528 5529 5533 5535 5534 5528 5527 5525 5524 5524 5524 5522 5521 5519 5518 5518 5518 5518 5518 5517 5518 5518 5518 5519 5520 5520 5519 5520 5520 5520 5518 5518 5518 5517 5516 5516 5515 5514
5519 5517 5517 5529 5521 5524 5526 5525 5525 5526 5525 5523 5520 5516 5515 5515 5516 5515 5512 5511 5509 5507 5506 5506 5505 5505 5505 5505 5506 5506 5506 5507 5507 5507 5507 5507 5506 5505 5505 5504 5504 5504 5503 5502
5519 5524 5529 5527 5520 5519 5523 5524 5522 5522 5520 5516 5512 5512 5513 5507 5505 5504 5502 5499 5498 5496 5495 5495 5494 5493 5493 5494 5493 5494 5494 5494 5494 5494 5495 5495 5494 5494 5493 5492 5492 5491 5491 5490
5517 5522 5529 5535 5521 5516 5520 5526 5520 5518 5516 5512 5509 5517 5515 5500 5495 5494 5491 5489 5487 5486 5485 5484 5482 5481 5481 5481 5481 5481 5480 5480 5480 5481 5482 5483 5483 5482 5480 5479 5479 5479 5478 5478
5517 5522 5535 5528 5516 5515 5524 5534 5517 5514 5512 5509 5509 5509 5501 5492 5488 5484 5482 5479 5477 5476 5474 5472 5470 5469 5469 5468 5467 5466 5466 5466 5467 5468 5469 5470 5470 5469 5468 5467 5467 5467 5467 5467
5521 5522 5533 5521 5516 5523 5529 5516 5512 5509 5506 5502 5499 5493 5488 5484 5480 5476 5473 5470 5467 5465 5463 5460 5458 5456 5456 5454 5452 5452 5452 5453 5455 5456 5456 5456 5456 5456 5456 5456 5456 5456 5456 5456
5531 5535 5526 5521 5523 5519 5515 5513 5509 5505 5500 5495 5491 5487 5482 5477 5473 5469 5465 5461 5457 5455 5452 5450 5447 5444 5443 5440 5439 5438 5439 5440 5441 5442 5443 5443 5443 5443 5444 5445 5446 5447 5446 5446
5520 5526 5521 5517 5515 5511 5509 5509 5504 5499 5494 5490 5486 5481 5475 5470 5465 5461 5456 5452 5448 5444 5442 5440 5435 5431 5429 5427 5425 5425 5426 5426 5427 5428 5429 5430 5431 5431 5432 5434 5436 5436 5437 5437
5523 5524 5517 5516 5514 5511 5505 5500 5496 5491 5487 5483 5479 5473 5468 5463 5457 5452 5447 5442 5437 5434 5431 5428 5424 5419 5416 5414 5413 5413 5412 5413 5413 5414 5415 5417 5418 5420 5421 5424 5425 5427 5428 5429
5539 5536 5530 5529 5520 5510 5503 5497 5492 5487 5480 5475 5470 5466 5460 5455 5449 5443 5438 5433 5428 5423 5419 5416 5412 5409 5405 5402 5400 5399 5399 5399 5399 5399 5400 5402 5404 5406 5408 5410 5412 5414 5416 5417
5535 5526 5523 5517 5511 5505 5500 5494 5487 5481 5475 5469 5463 5457 5451 5446 5440 5434 5429 5423 5418 5413 5409 5405 5401 5397 5394 5390 5388 5386 5385 5385 5385 5385 5386 5388 5390 5392 5396 5399 5401 5403 5405 5407
5518 5515 5512 5508 5504 5498 5493 5486 5479 5473 5467 5461 5454 5448 5442 5436 5430 5425 5419 5414 5407 5402 5398 5394 5389 5386 5382 5378 5376 5374 5373 5372 5371 5373 5373 5375 5377 5379 5382 5386 5389 5393 5395 5398
5513 5512 5512 5505 5497 5489 5483 5477 5471 5466 5459 5453 5446 5440 5433 5427 5422 5416 5410 5403 5397 5391 5387 5382 5377 5374 5370 5366 5363 5362 5360 5360 5360 5360 5361 5362 5364 5367 5370 5374 5377 5381 5384 5387
5508 5502 5498 5495 5490 5483 5476 5471 5467 5462 5454 5446 5439 5432 5425 5418 5412 5406 5399 5392 5386 5382 5376 5371 5366 5362 5358 5354 5351 5350 5350 5348 5346 5348 5349 5351 5353 5356 5359 5363 5366 5370 5373 5376
5504 5497 5492 5488 5485 5479 5473 5468 5462 5455 5447 5439 5432 5424 5416 5409 5403 5397 5390 5383 5376 5370 5365 5360 5355 5351 5346 5342 5339 5338 5338 5337 5335 5335 5337 5339 5342 5344 5348 5351 5355 5359 5363 5365
5510 5506 5499 5493 5485 5476 5468 5460 5453 5446 5438 5431 5422 5414 5407 5400 5395 5388 5381 5374 5367 5362 5356 5351 5345 5340 5335 5331 5328 5326 5325 5324 5323 5323 5325 5327 5331 5333 5337 5340 5344 5348 5351 5354
5499 5495 5489 5483 5477 5470 5462 5453 5445 5437 5429 5420 5412 5405 5398 5391 5385 5378 5371 5364 5359 5355 5350 5342 5336 5331 5326 5321 5317 5315 5314 5313 5312 5313 5314 5317 5320 5323 5326 5329 5333 5336 5340 5343
5490 5485 5479 5472 5465 5459 5452 5444 5435 5427 5419 5410 5403 5396 5389 5383 5375 5368 5362 5357 5352 5346 5340 5333 5327 5322 5317 5313 5308 5307 5305 5304 5304 5304 5305 5307 5309 5312 5315 5318 5322 5325 5328 5332
5482 5476 5469 5463 5455 5448 5441 5434 5426 5418 5410 5401 5394 5388 5381 5374 5366 5359 5353 5350 5346 5337 5330 5324 5319 5314 5309 5305 5301 5299 5298 5296 5296 5296 5296 5297 5299 5302 5304 5307 5310 5313 5316 5320
5473 5467 5461 5454 5446 5439 5431 5424 5416 5409 5400 5393 5385 5378 5371 5365 5358 5351 5345 5340 5335 5327 5322 5317 5312 5307 5302 5298 5295 5292 5290 5288 5288 5287 5288 5288 5290 5292 5294 5296 5299 5302 5305 5308
5463 5458 5451 5444 5438 5430 5420 5413 5406 5399 5391 5383 5376 5369 5363 5356 5349 5342 5338 5332 5324 5318 5313 5309 5304 5299 5295 5291 5288 5285 5283 5281 5280 5280 5280 5280 5281 5282 5284 5286 5289 5291 5294 5297
5452 5446 5439 5432 5425 5418 5411 5404 5395 5388 5380 5373 5366 5359 5353 5346 5341 5334 5327 5320 5314 5309 5305 5300 5295 5291 5287 5284 5281 5278 5276 5274 5273 5273 5272 5272 5273 5274 5275 5277 5280 5282 5285 5287
5440 5433 5426 5419 5415 5410 5402 5393 5385 5378 5371 5365 5358 5350 5343 5336 5329 5323 5316 5310 5304 5299 5295 5291 5286 5282 5278 5275 5272 5270 5269 5268 5267 5266 5266 5266 5266 5267 5268 5270 5271 5274 5276 5279
5429 5424 5418 5412 5406 5399 5391 5384 5377 5370 5362 5356 5349 5341 5333 5326 5319 5312 5306 5300 5294 5289 5285 5280 5276 5272 5268 5266 5264 5262 5261 5261 5260 5260 5260 5260 5260 5261 5262 5263 5264 5266 5269 5271
5415 5410 5404 5399 5392 5386 5380 5373 5367 5360 5352 5345 5338 5331 5323 5315 5308 5302 5296 5290 5284 5279 5274 5270 5266 5262 5259 5257 5255 5254 5254 5253 5253 5253 5253 5253 5254 5255 5256 5257 5258 5260 5262 5263